Year,Month,Day,Hour,Minute,Value (Times are PST for temperature in C)
2015,03,08,00,00,5.80
2015,03,08,00,01,5.80
2015,03,08,00,02,5.80
2015,03,08,00,03,5.90
2015,03,08,00,04,6.00
2015,03,08,00,05,6.00
2015,03,08,00,06,6.00
2015,03,08,00,07,6.00
2015,03,08,00,08,6.00
2015,03,08,00,09,6.10
2015,03,08,00,10,6.10
2015,03,08,00,11,6.10
2015,03,08,00,12,6.10
2015,03,08,00,13,6.10
2015,03,08,00,14,6.10
2015,03,08,00,15,6.20
2015,03,08,00,16,6.20
2015,03,08,00,17,6.20
2015,03,08,00,18,6.20
2015,03,08,00,19,6.20
2015,03,08,00,20,6.20
2015,03,08,00,21,6.20
2015,03,08,00,22,6.20
2015,03,08,00,23,6.20
2015,03,08,00,24,6.10
2015,03,08,00,25,6.10
2015,03,08,00,26,6.10
2015,03,08,00,27,6.10
2015,03,08,00,28,6.10
2015,03,08,00,29,6.10
2015,03,08,00,30,6.20
2015,03,08,00,31,6.20
2015,03,08,00,32,6.20
2015,03,08,00,33,6.20
2015,03,08,00,34,6.20
2015,03,08,00,35,6.20
2015,03,08,00,36,6.10
2015,03,08,00,37,6.10
2015,03,08,00,38,6.10
2015,03,08,00,39,6.10
2015,03,08,00,40,6.10
2015,03,08,00,41,6.10
2015,03,08,00,42,6.10
2015,03,08,00,43,6.10
2015,03,08,00,44,6.10
2015,03,08,00,45,6.10
2015,03,08,00,46,6.00
2015,03,08,00,47,6.00
2015,03,08,00,48,6.10
2015,03,08,00,49,6.10
2015,03,08,00,50,6.20
2015,03,08,00,51,6.20
2015,03,08,00,52,6.20
2015,03,08,00,53,6.20
2015,03,08,00,54,6.20
2015,03,08,00,55,6.20
2015,03,08,00,56,6.20
2015,03,08,00,57,6.20
2015,03,08,00,58,6.20
2015,03,08,00,59,6.20
2015,03,08,01,00,6.20
2015,03,08,01,01,6.20
2015,03,08,01,02,6.20
2015,03,08,01,03,6.20
2015,03,08,01,04,6.20
2015,03,08,01,05,6.10
2015,03,08,01,06,6.00
2015,03,08,01,07,6.00
2015,03,08,01,08,5.90
2015,03,08,01,09,5.80
2015,03,08,01,10,5.70
2015,03,08,01,11,5.70
2015,03,08,01,12,5.70
2015,03,08,01,13,5.60
2015,03,08,01,14,5.50
2015,03,08,01,15,5.40
2015,03,08,01,16,5.40
2015,03,08,01,17,5.30
2015,03,08,01,18,5.30
2015,03,08,01,19,5.30
2015,03,08,01,20,5.30
2015,03,08,01,21,5.20
2015,03,08,01,22,5.20
2015,03,08,01,23,5.30
2015,03,08,01,24,5.30
2015,03,08,01,25,5.30
2015,03,08,01,26,5.30
2015,03,08,01,27,5.40
2015,03,08,01,28,5.40
2015,03,08,01,29,5.40
2015,03,08,01,30,5.30
2015,03,08,01,31,5.30
2015,03,08,01,32,5.30
2015,03,08,01,33,5.30
2015,03,08,01,34,5.30
2015,03,08,01,35,5.30
2015,03,08,01,36,5.30
2015,03,08,01,37,5.30
2015,03,08,01,38,5.30
2015,03,08,01,39,5.30
2015,03,08,01,40,5.30
2015,03,08,01,41,5.20
2015,03,08,01,42,5.20
2015,03,08,01,43,5.20
2015,03,08,01,44,5.20
2015,03,08,01,45,5.20
2015,03,08,01,46,5.20
2015,03,08,01,47,5.20
2015,03,08,01,48,5.10
2015,03,08,01,49,5.10
2015,03,08,01,50,5.20
2015,03,08,01,51,5.20
2015,03,08,01,52,5.20
2015,03,08,01,53,5.20
2015,03,08,01,54,5.20
2015,03,08,01,55,5.20
2015,03,08,01,56,5.20
2015,03,08,01,57,5.20
2015,03,08,01,58,5.20
2015,03,08,01,59,5.20
2015,03,08,03,00,5.20
2015,03,08,03,01,5.20
2015,03,08,03,02,5.30
2015,03,08,03,03,5.20
2015,03,08,03,04,5.20
2015,03,08,03,05,5.20
2015,03,08,03,06,5.20
2015,03,08,03,07,5.20
2015,03,08,03,08,5.20
2015,03,08,03,09,5.20
2015,03,08,03,10,5.20
2015,03,08,03,11,5.20
2015,03,08,03,12,5.30
2015,03,08,03,13,5.30
2015,03,08,03,14,5.30
2015,03,08,03,15,5.30
2015,03,08,03,16,5.20
2015,03,08,03,17,5.20
2015,03,08,03,18,5.20
2015,03,08,03,19,5.20
2015,03,08,03,20,5.20
2015,03,08,03,21,5.20
2015,03,08,03,22,5.20
2015,03,08,03,23,5.20
2015,03,08,03,24,5.20
2015,03,08,03,25,5.10
2015,03,08,03,26,5.10
2015,03,08,03,27,5.00
2015,03,08,03,28,4.90
2015,03,08,03,29,4.90
2015,03,08,03,30,4.80
2015,03,08,03,31,4.80
2015,03,08,03,32,4.70
2015,03,08,03,33,4.70
2015,03,08,03,34,4.60
2015,03,08,03,35,4.60
2015,03,08,03,36,4.60
2015,03,08,03,37,4.50
2015,03,08,03,38,4.50
2015,03,08,03,39,4.50
2015,03,08,03,40,4.50
2015,03,08,03,41,4.40
2015,03,08,03,42,4.40
2015,03,08,03,43,4.40
2015,03,08,03,44,4.40
2015,03,08,03,45,4.40
2015,03,08,03,46,4.40
2015,03,08,03,47,4.40
2015,03,08,03,48,4.40
2015,03,08,03,49,4.40
2015,03,08,03,50,4.40
2015,03,08,03,51,4.50
2015,03,08,03,52,4.50
2015,03,08,03,53,4.50
2015,03,08,03,54,4.60
2015,03,08,03,55,4.60
2015,03,08,03,56,4.60
2015,03,08,03,57,4.60
2015,03,08,03,58,4.60
2015,03,08,03,59,4.60
2015,03,08,04,00,4.60
2015,03,08,04,01,4.70
2015,03,08,04,02,4.70
2015,03,08,04,03,4.80
2015,03,08,04,04,4.90
2015,03,08,04,05,4.90
2015,03,08,04,06,5.10
2015,03,08,04,07,5.10
2015,03,08,04,08,5.10
2015,03,08,04,09,5.20
2015,03,08,04,10,5.10
2015,03,08,04,11,5.00
2015,03,08,04,12,4.90
2015,03,08,04,13,4.90
2015,03,08,04,14,4.80
2015,03,08,04,15,4.70
2015,03,08,04,16,4.70
2015,03,08,04,17,4.70
2015,03,08,04,18,4.60
2015,03,08,04,19,4.60
2015,03,08,04,20,4.60
2015,03,08,04,21,4.60
2015,03,08,04,22,4.60
2015,03,08,04,23,4.60
2015,03,08,04,24,4.60
2015,03,08,04,25,4.50
2015,03,08,04,26,4.50
2015,03,08,04,27,4.40
2015,03,08,04,28,4.30
2015,03,08,04,29,4.30
2015,03,08,04,30,4.20
2015,03,08,04,31,4.20
2015,03,08,04,32,4.20
2015,03,08,04,33,4.20
2015,03,08,04,34,4.10
2015,03,08,04,35,4.10
2015,03,08,04,36,4.00
2015,03,08,04,37,4.00
2015,03,08,04,38,4.00
2015,03,08,04,39,3.90
2015,03,08,04,40,3.90
2015,03,08,04,41,3.80
2015,03,08,04,42,3.80
2015,03,08,04,43,3.80
2015,03,08,04,44,3.80
2015,03,08,04,45,3.80
2015,03,08,04,46,3.80
2015,03,08,04,47,3.90
2015,03,08,04,48,3.90
2015,03,08,04,49,4.00
2015,03,08,04,50,4.00
2015,03,08,04,51,4.10
2015,03,08,04,52,4.20
2015,03,08,04,53,4.20
2015,03,08,04,54,4.20
2015,03,08,04,55,4.20
2015,03,08,04,56,4.20
2015,03,08,04,57,4.20
2015,03,08,04,58,4.20
2015,03,08,04,59,4.20
2015,03,08,05,00,4.20
2015,03,08,05,01,4.20
2015,03,08,05,02,4.20
2015,03,08,05,03,4.20
2015,03,08,05,04,4.20
2015,03,08,05,05,4.20
2015,03,08,05,06,4.20
2015,03,08,05,07,4.10
2015,03,08,05,08,4.10
2015,03,08,05,09,4.10
2015,03,08,05,10,4.10
2015,03,08,05,11,4.10
2015,03,08,05,12,4.20
2015,03,08,05,13,4.20
2015,03,08,05,14,4.30
2015,03,08,05,15,4.40
2015,03,08,05,16,4.50
2015,03,08,05,17,4.50
2015,03,08,05,18,4.60
2015,03,08,05,19,4.60
2015,03,08,05,20,4.60
2015,03,08,05,21,4.60
2015,03,08,05,22,4.60
2015,03,08,05,23,4.60
2015,03,08,05,24,4.70
2015,03,08,05,25,4.80
2015,03,08,05,26,4.80
2015,03,08,05,27,4.80
2015,03,08,05,28,4.90
2015,03,08,05,29,4.80
2015,03,08,05,30,4.90
2015,03,08,05,31,4.90
2015,03,08,05,32,4.90
2015,03,08,05,33,4.90
2015,03,08,05,34,4.90
2015,03,08,05,35,4.90
2015,03,08,05,36,4.90
2015,03,08,05,37,4.90
2015,03,08,05,38,4.90
2015,03,08,05,39,4.90
2015,03,08,05,40,4.90
2015,03,08,05,41,4.90
2015,03,08,05,42,4.90
2015,03,08,05,43,4.80
2015,03,08,05,44,4.80
2015,03,08,05,45,4.70
2015,03,08,05,46,4.70
2015,03,08,05,47,4.60
2015,03,08,05,48,4.60
2015,03,08,05,49,4.60
2015,03,08,05,50,4.60
2015,03,08,05,51,4.50
2015,03,08,05,52,4.50
2015,03,08,05,53,4.50
2015,03,08,05,54,4.40
2015,03,08,05,55,4.30
2015,03,08,05,56,4.30
2015,03,08,05,57,4.20
2015,03,08,05,58,4.20
2015,03,08,05,59,4.10
2015,03,08,06,00,4.00
2015,03,08,06,01,4.00
2015,03,08,06,02,3.90
2015,03,08,06,03,3.80
2015,03,08,06,04,3.80
2015,03,08,06,05,3.80
2015,03,08,06,06,3.80
2015,03,08,06,07,3.80
2015,03,08,06,08,3.80
2015,03,08,06,09,3.80
2015,03,08,06,10,3.80
2015,03,08,06,11,3.80
2015,03,08,06,12,3.80
2015,03,08,06,13,3.90
2015,03,08,06,14,3.90
2015,03,08,06,15,4.00
2015,03,08,06,16,4.00
2015,03,08,06,17,4.00
2015,03,08,06,18,4.10
2015,03,08,06,19,4.20
2015,03,08,06,20,4.20
2015,03,08,06,21,4.30
2015,03,08,06,22,4.40
2015,03,08,06,23,4.40
2015,03,08,06,24,4.50
2015,03,08,06,25,4.70
2015,03,08,06,26,5.00
2015,03,08,06,27,5.20
2015,03,08,06,28,5.30
2015,03,08,06,29,5.30
2015,03,08,06,30,5.30
2015,03,08,06,31,5.30
2015,03,08,06,32,5.20
2015,03,08,06,33,5.20
2015,03,08,06,34,5.10
2015,03,08,06,35,5.10
2015,03,08,06,36,5.10
2015,03,08,06,37,5.10
2015,03,08,06,38,5.10
2015,03,08,06,39,5.10
2015,03,08,06,40,5.10
2015,03,08,06,41,5.10
2015,03,08,06,42,5.10
2015,03,08,06,43,5.10
2015,03,08,06,44,5.10
2015,03,08,06,45,5.10
2015,03,08,06,46,5.20
2015,03,08,06,47,5.30
2015,03,08,06,48,5.30
2015,03,08,06,49,5.30
2015,03,08,06,50,5.30
2015,03,08,06,51,5.30
2015,03,08,06,52,5.30
2015,03,08,06,53,5.30
2015,03,08,06,54,5.30
2015,03,08,06,55,5.40
2015,03,08,06,56,5.40
2015,03,08,06,57,5.50
2015,03,08,06,58,5.60
2015,03,08,06,59,5.60
2015,03,08,07,00,5.70
2015,03,08,07,01,5.60
2015,03,08,07,02,5.60
2015,03,08,07,03,5.60
2015,03,08,07,04,5.60
2015,03,08,07,05,5.60
2015,03,08,07,06,5.60
2015,03,08,07,07,5.60
2015,03,08,07,08,5.70
2015,03,08,07,09,5.70
2015,03,08,07,10,5.70
2015,03,08,07,11,5.70
2015,03,08,07,12,5.70
2015,03,08,07,13,5.70
2015,03,08,07,14,5.70
2015,03,08,07,15,5.70
2015,03,08,07,16,5.70
2015,03,08,07,17,5.70
2015,03,08,07,18,5.70
2015,03,08,07,19,5.70
2015,03,08,07,20,5.60
2015,03,08,07,21,5.40
2015,03,08,07,22,5.30
2015,03,08,07,23,5.30
2015,03,08,07,24,5.30
2015,03,08,07,25,5.30
2015,03,08,07,26,5.30
2015,03,08,07,27,5.30
2015,03,08,07,28,5.30
2015,03,08,07,29,5.30
2015,03,08,07,30,5.30
2015,03,08,07,31,5.40
2015,03,08,07,32,5.40
2015,03,08,07,33,5.30
2015,03,08,07,34,5.30
2015,03,08,07,35,5.30
2015,03,08,07,36,5.30
2015,03,08,07,37,5.30
2015,03,08,07,38,5.40
2015,03,08,07,39,5.50
2015,03,08,07,40,5.50
2015,03,08,07,41,5.50
2015,03,08,07,42,5.50
2015,03,08,07,43,5.50
2015,03,08,07,44,5.40
2015,03,08,07,45,5.40
2015,03,08,07,46,5.50
2015,03,08,07,47,5.50
2015,03,08,07,48,5.50
2015,03,08,07,49,5.60
2015,03,08,07,50,5.60
2015,03,08,07,51,5.60
2015,03,08,07,52,5.60
2015,03,08,07,53,5.50
2015,03,08,07,54,5.40
2015,03,08,07,55,5.20
2015,03,08,07,56,5.10
2015,03,08,07,57,5.00
2015,03,08,07,58,4.90
2015,03,08,07,59,4.80
2015,03,08,08,00,4.70
2015,03,08,08,01,4.60
2015,03,08,08,02,4.60
2015,03,08,08,03,4.60
2015,03,08,08,04,4.60
2015,03,08,08,05,4.50
2015,03,08,08,06,4.50
2015,03,08,08,07,4.50
2015,03,08,08,08,4.50
2015,03,08,08,09,4.50
2015,03,08,08,10,4.60
2015,03,08,08,11,4.60
2015,03,08,08,12,4.70
2015,03,08,08,13,4.80
2015,03,08,08,14,4.80
2015,03,08,08,15,4.90
2015,03,08,08,16,4.90
2015,03,08,08,17,4.90
2015,03,08,08,18,5.00
2015,03,08,08,19,5.10
2015,03,08,08,20,5.30
2015,03,08,08,21,5.50
2015,03,08,08,22,5.60
2015,03,08,08,23,5.70
2015,03,08,08,24,5.80
2015,03,08,08,25,5.90
2015,03,08,08,26,6.00
2015,03,08,08,27,6.00
2015,03,08,08,28,6.10
2015,03,08,08,29,6.20
2015,03,08,08,30,6.20
2015,03,08,08,31,6.20
2015,03,08,08,32,6.20
2015,03,08,08,33,6.20
2015,03,08,08,34,6.30
2015,03,08,08,35,6.40
2015,03,08,08,36,6.50
2015,03,08,08,37,6.60
2015,03,08,08,38,6.70
2015,03,08,08,39,6.80
2015,03,08,08,40,6.80
2015,03,08,08,41,6.80
2015,03,08,08,42,6.70
2015,03,08,08,43,6.70
2015,03,08,08,44,6.60
2015,03,08,08,45,6.60
2015,03,08,08,46,6.60
2015,03,08,08,47,6.60
2015,03,08,08,48,6.60
2015,03,08,08,49,6.70
2015,03,08,08,50,6.80
2015,03,08,08,51,6.80
2015,03,08,08,52,6.90
2015,03,08,08,53,6.90
2015,03,08,08,54,7.00
2015,03,08,08,55,7.00
2015,03,08,08,56,7.10
2015,03,08,08,57,7.10
2015,03,08,08,58,7.20
2015,03,08,08,59,7.30
2015,03,08,09,00,7.30
2015,03,08,09,01,7.30
2015,03,08,09,02,7.30
2015,03,08,09,03,7.40
2015,03,08,09,04,7.50
2015,03,08,09,05,7.50
2015,03,08,09,06,7.60
2015,03,08,09,07,7.60
2015,03,08,09,08,7.60
2015,03,08,09,09,7.60
2015,03,08,09,10,7.70
2015,03,08,09,11,7.70
2015,03,08,09,12,7.70
2015,03,08,09,13,7.80
2015,03,08,09,14,7.80
2015,03,08,09,15,7.80
2015,03,08,09,16,7.80
2015,03,08,09,17,7.80
2015,03,08,09,18,7.80
2015,03,08,09,19,7.80
2015,03,08,09,20,7.80
2015,03,08,09,21,7.90
2015,03,08,09,22,8.00
2015,03,08,09,23,8.00
2015,03,08,09,24,8.10
2015,03,08,09,25,8.10
2015,03,08,09,26,8.10
2015,03,08,09,27,8.00
2015,03,08,09,28,8.00
2015,03,08,09,29,8.00
2015,03,08,09,30,8.00
2015,03,08,09,31,8.00
2015,03,08,09,32,8.00
2015,03,08,09,33,8.00
2015,03,08,09,34,8.00
2015,03,08,09,35,8.00
2015,03,08,09,36,7.90
2015,03,08,09,37,7.90
2015,03,08,09,38,7.90
2015,03,08,09,39,8.00
2015,03,08,09,40,8.00
2015,03,08,09,41,8.00
2015,03,08,09,42,8.00
2015,03,08,09,43,7.90
2015,03,08,09,44,7.90
2015,03,08,09,45,7.90
2015,03,08,09,46,7.90
2015,03,08,09,47,7.90
2015,03,08,09,48,7.90
2015,03,08,09,49,7.90
2015,03,08,09,50,7.90
2015,03,08,09,51,7.80
2015,03,08,09,52,7.80
2015,03,08,09,53,7.80
2015,03,08,09,54,7.80
2015,03,08,09,55,7.80
2015,03,08,09,56,7.80
2015,03,08,09,57,7.80
2015,03,08,09,58,7.80
2015,03,08,09,59,7.80
2015,03,08,10,00,7.80
2015,03,08,10,01,7.80
2015,03,08,10,02,7.80
2015,03,08,10,03,7.80
2015,03,08,10,04,7.80
2015,03,08,10,05,7.80
2015,03,08,10,06,7.80
2015,03,08,10,07,7.80
2015,03,08,10,08,7.80
2015,03,08,10,09,7.80
2015,03,08,10,10,7.80
2015,03,08,10,11,7.80
2015,03,08,10,12,7.80
2015,03,08,10,13,7.80
2015,03,08,10,14,7.80
2015,03,08,10,15,7.70
2015,03,08,10,16,7.70
2015,03,08,10,17,7.70
2015,03,08,10,18,7.70
2015,03,08,10,19,7.70
2015,03,08,10,20,7.70
2015,03,08,10,21,7.70
2015,03,08,10,22,7.80
2015,03,08,10,23,7.80
2015,03,08,10,24,7.80
2015,03,08,10,25,7.80
2015,03,08,10,26,7.80
2015,03,08,10,27,7.80
2015,03,08,10,28,7.80
2015,03,08,10,29,7.80
2015,03,08,10,30,7.80
2015,03,08,10,31,7.80
2015,03,08,10,32,7.80
2015,03,08,10,33,7.80
2015,03,08,10,34,7.80
2015,03,08,10,35,7.90
2015,03,08,10,36,7.90
2015,03,08,10,37,7.90
2015,03,08,10,38,7.90
2015,03,08,10,39,7.90
2015,03,08,10,40,7.90
2015,03,08,10,41,7.90
2015,03,08,10,42,7.90
2015,03,08,10,43,7.90
2015,03,08,10,44,7.90
2015,03,08,10,45,7.90
2015,03,08,10,46,7.90
2015,03,08,10,47,7.90
2015,03,08,10,48,7.80
2015,03,08,10,49,7.90
2015,03,08,10,50,7.90
2015,03,08,10,51,7.90
2015,03,08,10,52,7.90
2015,03,08,10,53,7.90
2015,03,08,10,54,7.90
2015,03,08,10,55,8.00
2015,03,08,10,56,8.00
2015,03,08,10,57,8.00
2015,03,08,10,58,8.00
2015,03,08,10,59,8.00
2015,03,08,11,00,8.00
2015,03,08,11,01,8.10
2015,03,08,11,02,8.20
2015,03,08,11,03,8.20
2015,03,08,11,04,8.20
2015,03,08,11,05,8.20
2015,03,08,11,06,8.20
2015,03,08,11,07,8.20
2015,03,08,11,08,8.20
2015,03,08,11,09,8.20
2015,03,08,11,10,8.20
2015,03,08,11,11,8.20
2015,03,08,11,12,8.20
2015,03,08,11,13,8.20
2015,03,08,11,14,8.20
2015,03,08,11,15,8.30
2015,03,08,11,16,8.30
2015,03,08,11,17,8.40
2015,03,08,11,18,8.50
2015,03,08,11,19,8.50
2015,03,08,11,20,8.60
2015,03,08,11,21,8.70
2015,03,08,11,22,8.70
2015,03,08,11,23,8.70
2015,03,08,11,24,8.70
2015,03,08,11,25,8.80
2015,03,08,11,26,8.80
2015,03,08,11,27,8.90
2015,03,08,11,28,8.80
2015,03,08,11,29,8.80
2015,03,08,11,30,8.70
2015,03,08,11,31,8.70
2015,03,08,11,32,8.70
2015,03,08,11,33,8.70
2015,03,08,11,34,8.70
2015,03,08,11,35,8.60
2015,03,08,11,36,8.70
2015,03,08,11,37,8.70
2015,03,08,11,38,8.70
2015,03,08,11,39,8.70
2015,03,08,11,40,8.80
2015,03,08,11,41,8.80
2015,03,08,11,42,8.90
2015,03,08,11,43,8.90
2015,03,08,11,44,9.00
2015,03,08,11,45,9.00
2015,03,08,11,46,9.10
2015,03,08,11,47,9.10
2015,03,08,11,48,9.20
2015,03,08,11,49,9.20
2015,03,08,11,50,9.20
2015,03,08,11,51,9.30
2015,03,08,11,52,9.30
2015,03,08,11,53,9.30
2015,03,08,11,54,9.30
2015,03,08,11,55,9.30
2015,03,08,11,56,9.20
2015,03,08,11,57,9.20
2015,03,08,11,58,9.20
2015,03,08,11,59,9.30
2015,03,08,12,00,9.30
2015,03,08,12,01,9.40
2015,03,08,12,02,9.40
2015,03,08,12,03,9.40
2015,03,08,12,04,9.30
2015,03,08,12,05,9.30
2015,03,08,12,06,9.20
2015,03,08,12,07,9.20
2015,03,08,12,08,9.20
2015,03,08,12,09,9.20
2015,03,08,12,10,9.30
2015,03,08,12,11,9.30
2015,03,08,12,12,9.30
2015,03,08,12,13,9.20
2015,03,08,12,14,9.20
2015,03,08,12,15,9.20
2015,03,08,12,16,9.20
2015,03,08,12,17,9.20
2015,03,08,12,18,9.10
2015,03,08,12,19,9.00
2015,03,08,12,20,9.10
2015,03,08,12,21,9.10
2015,03,08,12,22,9.10
2015,03,08,12,23,9.00
2015,03,08,12,24,9.00
2015,03,08,12,25,9.00
2015,03,08,12,26,9.00
2015,03,08,12,27,9.10
2015,03,08,12,28,9.20
2015,03,08,12,29,9.20
2015,03,08,12,30,9.20
2015,03,08,12,31,9.20
2015,03,08,12,32,9.20
2015,03,08,12,33,9.20
2015,03,08,12,34,9.20
2015,03,08,12,35,9.20
2015,03,08,12,36,9.20
2015,03,08,12,37,9.30
2015,03,08,12,38,9.30
2015,03,08,12,39,9.30
2015,03,08,12,40,9.30
2015,03,08,12,41,9.30
2015,03,08,12,42,9.30
2015,03,08,12,43,9.30
2015,03,08,12,44,9.40
2015,03,08,12,45,9.50
2015,03,08,12,46,9.60
2015,03,08,12,47,9.70
2015,03,08,12,48,9.70
2015,03,08,12,49,9.80
2015,03,08,12,50,9.80
2015,03,08,12,51,9.90
2015,03,08,12,52,9.90
2015,03,08,12,53,10.00
2015,03,08,12,54,10.10
2015,03,08,12,55,10.10
2015,03,08,12,56,10.20
2015,03,08,12,57,10.20
2015,03,08,12,58,10.30
2015,03,08,12,59,10.40
2015,03,08,13,00,10.60
2015,03,08,13,01,10.60
2015,03,08,13,02,10.60
2015,03,08,13,03,10.60
2015,03,08,13,04,10.60
2015,03,08,13,05,10.60
2015,03,08,13,06,10.70
2015,03,08,13,07,10.70
2015,03,08,13,08,10.70
2015,03,08,13,09,10.70
2015,03,08,13,10,10.70
2015,03,08,13,11,10.70
2015,03,08,13,12,10.70
2015,03,08,13,13,10.80
2015,03,08,13,14,10.80
2015,03,08,13,15,10.90
2015,03,08,13,16,10.90
2015,03,08,13,17,10.90
2015,03,08,13,18,11.00
2015,03,08,13,19,11.10
2015,03,08,13,20,11.10
2015,03,08,13,21,11.10
2015,03,08,13,22,11.20
2015,03,08,13,23,11.30
2015,03,08,13,24,11.40
2015,03,08,13,25,11.30
2015,03,08,13,26,11.30
2015,03,08,13,27,11.30
2015,03,08,13,28,11.30
2015,03,08,13,29,11.30
2015,03,08,13,30,11.30
2015,03,08,13,31,11.30
2015,03,08,13,32,11.30
2015,03,08,13,33,11.30
2015,03,08,13,34,11.40
2015,03,08,13,35,11.40
2015,03,08,13,36,11.40
2015,03,08,13,37,11.40
2015,03,08,13,38,11.20
2015,03,08,13,39,11.20
2015,03,08,13,40,11.10
2015,03,08,13,41,11.10
2015,03,08,13,42,11.10
2015,03,08,13,43,11.10
2015,03,08,13,44,11.20
2015,03,08,13,45,11.20
2015,03,08,13,46,11.20
2015,03,08,13,47,11.20
2015,03,08,13,48,11.20
2015,03,08,13,49,11.30
2015,03,08,13,50,11.20
2015,03,08,13,51,11.30
2015,03,08,13,52,11.30
2015,03,08,13,53,11.20
2015,03,08,13,54,11.20
2015,03,08,13,55,11.10
2015,03,08,13,56,11.10
2015,03,08,13,57,11.10
2015,03,08,13,58,11.10
2015,03,08,13,59,11.20
2015,03,08,14,00,11.20
2015,03,08,14,01,11.20
2015,03,08,14,02,11.30
2015,03,08,14,03,11.30
2015,03,08,14,04,11.40
2015,03,08,14,05,11.40
2015,03,08,14,06,11.50
2015,03,08,14,07,11.60
2015,03,08,14,08,11.60
2015,03,08,14,09,11.60
2015,03,08,14,10,11.60
2015,03,08,14,11,11.60
2015,03,08,14,12,11.70
2015,03,08,14,13,11.80
2015,03,08,14,14,11.80
2015,03,08,14,15,11.80
2015,03,08,14,16,11.80
2015,03,08,14,17,11.80
2015,03,08,14,18,11.80
2015,03,08,14,19,11.80
2015,03,08,14,20,11.80
2015,03,08,14,21,11.80
2015,03,08,14,22,11.80
2015,03,08,14,23,11.80
2015,03,08,14,24,11.80
2015,03,08,14,25,11.80
2015,03,08,14,26,11.90
2015,03,08,14,27,12.00
2015,03,08,14,28,12.00
2015,03,08,14,29,12.10
2015,03,08,14,30,12.10
2015,03,08,14,31,12.10
2015,03,08,14,32,12.10
2015,03,08,14,33,12.10
2015,03,08,14,34,12.10
2015,03,08,14,35,12.00
2015,03,08,14,36,12.00
2015,03,08,14,37,11.90
2015,03,08,14,38,11.80
2015,03,08,14,39,11.80
2015,03,08,14,40,11.80
2015,03,08,14,41,11.80
2015,03,08,14,42,11.80
2015,03,08,14,43,11.90
2015,03,08,14,44,12.00
2015,03,08,14,45,12.00
2015,03,08,14,46,12.00
2015,03,08,14,47,12.00
2015,03,08,14,48,11.90
2015,03,08,14,49,12.00
2015,03,08,14,50,12.00
2015,03,08,14,51,12.00
2015,03,08,14,52,12.10
2015,03,08,14,53,12.20
2015,03,08,14,54,12.30
2015,03,08,14,55,12.30
2015,03,08,14,56,12.20
2015,03,08,14,57,12.10
2015,03,08,14,58,12.10
2015,03,08,14,59,12.10
2015,03,08,15,00,12.10
2015,03,08,15,01,12.10
2015,03,08,15,02,12.10
2015,03,08,15,03,12.10
2015,03,08,15,04,12.10
2015,03,08,15,05,12.20
2015,03,08,15,06,12.20
2015,03,08,15,07,12.30
2015,03,08,15,08,12.30
2015,03,08,15,09,12.40
2015,03,08,15,10,12.40
2015,03,08,15,11,12.40
2015,03,08,15,12,12.40
2015,03,08,15,13,12.50
2015,03,08,15,14,12.60
2015,03,08,15,15,12.60
2015,03,08,15,16,12.50
2015,03,08,15,17,12.30
2015,03,08,15,18,12.30
2015,03,08,15,19,12.10
2015,03,08,15,20,12.00
2015,03,08,15,21,11.80
2015,03,08,15,22,11.80
2015,03,08,15,23,11.70
2015,03,08,15,24,11.80
2015,03,08,15,25,11.80
2015,03,08,15,26,11.80
2015,03,08,15,27,11.80
2015,03,08,15,28,11.80
2015,03,08,15,29,11.80
2015,03,08,15,30,11.80
2015,03,08,15,31,11.80
2015,03,08,15,32,11.90
2015,03,08,15,33,11.90
2015,03,08,15,34,12.00
2015,03,08,15,35,12.20
2015,03,08,15,36,12.30
2015,03,08,15,37,12.20
2015,03,08,15,38,12.20
2015,03,08,15,39,12.20
2015,03,08,15,40,12.30
2015,03,08,15,41,12.30
2015,03,08,15,42,12.30
2015,03,08,15,43,12.40
2015,03,08,15,44,12.50
2015,03,08,15,45,12.60
2015,03,08,15,46,12.60
2015,03,08,15,47,12.60
2015,03,08,15,48,12.70
2015,03,08,15,49,12.80
2015,03,08,15,50,12.90
2015,03,08,15,51,12.90
2015,03,08,15,52,13.00
2015,03,08,15,53,13.10
2015,03,08,15,54,13.20
2015,03,08,15,55,13.30
2015,03,08,15,56,13.40
2015,03,08,15,57,13.50
2015,03,08,15,58,13.60
2015,03,08,15,59,13.70
2015,03,08,16,00,13.70
2015,03,08,16,01,13.60
2015,03,08,16,02,13.50
2015,03,08,16,03,13.40
2015,03,08,16,04,13.30
2015,03,08,16,05,13.20
2015,03,08,16,06,13.10
2015,03,08,16,07,13.10
2015,03,08,16,08,13.10
2015,03,08,16,09,13.10
2015,03,08,16,10,13.10
2015,03,08,16,11,13.20
2015,03,08,16,12,13.20
2015,03,08,16,13,13.10
2015,03,08,16,14,13.00
2015,03,08,16,15,12.90
2015,03,08,16,16,12.80
2015,03,08,16,17,12.70
2015,03,08,16,18,12.60
2015,03,08,16,19,12.60
2015,03,08,16,20,12.60
2015,03,08,16,21,12.50
2015,03,08,16,22,12.50
2015,03,08,16,23,12.50
2015,03,08,16,24,12.50
2015,03,08,16,25,12.60
2015,03,08,16,26,12.60
2015,03,08,16,27,12.60
2015,03,08,16,28,12.60
2015,03,08,16,29,12.50
2015,03,08,16,30,12.40
2015,03,08,16,31,12.40
2015,03,08,16,32,12.30
2015,03,08,16,33,12.30
2015,03,08,16,34,12.30
2015,03,08,16,35,12.30
2015,03,08,16,36,12.30
2015,03,08,16,37,12.40
2015,03,08,16,38,12.40
2015,03,08,16,39,12.50
2015,03,08,16,40,12.50
2015,03,08,16,41,12.50
2015,03,08,16,42,12.50
2015,03,08,16,43,12.60
2015,03,08,16,44,12.60
2015,03,08,16,45,12.60
2015,03,08,16,46,12.60
2015,03,08,16,47,12.60
2015,03,08,16,48,12.60
2015,03,08,16,49,12.50
2015,03,08,16,50,12.60
2015,03,08,16,51,12.60
2015,03,08,16,52,12.60
2015,03,08,16,53,12.70
2015,03,08,16,54,12.80
2015,03,08,16,55,12.80
2015,03,08,16,56,12.80
2015,03,08,16,57,12.90
2015,03,08,16,58,12.90
2015,03,08,16,59,12.90
2015,03,08,17,00,12.90
2015,03,08,17,01,12.80
2015,03,08,17,02,12.80
2015,03,08,17,03,12.80
2015,03,08,17,04,12.80
2015,03,08,17,05,12.80
2015,03,08,17,06,12.70
2015,03,08,17,07,12.60
2015,03,08,17,08,12.50
2015,03,08,17,09,12.40
2015,03,08,17,10,12.40
2015,03,08,17,11,12.30
2015,03,08,17,12,12.40
2015,03,08,17,13,12.50
2015,03,08,17,14,12.50
2015,03,08,17,15,12.60
2015,03,08,17,16,12.70
2015,03,08,17,17,12.70
2015,03,08,17,18,12.80
2015,03,08,17,19,12.80
2015,03,08,17,20,12.90
2015,03,08,17,21,13.00
2015,03,08,17,22,13.00
2015,03,08,17,23,13.10
2015,03,08,17,24,13.10
2015,03,08,17,25,13.20
2015,03,08,17,26,13.30
2015,03,08,17,27,13.30
2015,03,08,17,28,13.30
2015,03,08,17,29,13.30
2015,03,08,17,30,13.30
2015,03,08,17,31,13.30
2015,03,08,17,32,13.30
2015,03,08,17,33,13.30
2015,03,08,17,34,13.30
2015,03,08,17,35,13.20
2015,03,08,17,36,13.10
2015,03,08,17,37,13.00
2015,03,08,17,38,12.80
2015,03,08,17,39,12.70
2015,03,08,17,40,12.60
2015,03,08,17,41,12.60
2015,03,08,17,42,12.50
2015,03,08,17,43,12.50
2015,03,08,17,44,12.50
2015,03,08,17,45,12.40
2015,03,08,17,46,12.40
2015,03,08,17,47,12.40
2015,03,08,17,48,12.40
2015,03,08,17,49,12.30
2015,03,08,17,50,12.40
2015,03,08,17,51,12.40
2015,03,08,17,52,12.30
2015,03,08,17,53,12.30
2015,03,08,17,54,12.30
2015,03,08,17,55,12.30
2015,03,08,17,56,12.30
2015,03,08,17,57,12.30
2015,03,08,17,58,12.20
2015,03,08,17,59,12.20
2015,03,08,18,00,12.10
2015,03,08,18,01,12.10
2015,03,08,18,02,12.10
2015,03,08,18,03,12.00
2015,03,08,18,04,12.00
2015,03,08,18,05,12.10
2015,03,08,18,06,12.10
2015,03,08,18,07,12.10
2015,03,08,18,08,12.20
2015,03,08,18,09,12.20
2015,03,08,18,10,12.30
2015,03,08,18,11,12.30
2015,03,08,18,12,12.30
2015,03,08,18,13,12.30
2015,03,08,18,14,12.40
2015,03,08,18,15,12.40
2015,03,08,18,16,12.40
2015,03,08,18,17,12.50
2015,03,08,18,18,12.50
2015,03,08,18,19,12.50
2015,03,08,18,20,12.50
2015,03,08,18,21,12.40
2015,03,08,18,22,12.40
2015,03,08,18,23,12.30
2015,03,08,18,24,12.30
2015,03,08,18,25,12.20
2015,03,08,18,26,12.20
2015,03,08,18,27,12.10
2015,03,08,18,28,12.10
2015,03,08,18,29,12.00
2015,03,08,18,30,12.00
2015,03,08,18,31,12.00
2015,03,08,18,32,12.10
2015,03,08,18,33,12.10
2015,03,08,18,34,12.10
2015,03,08,18,35,12.10
2015,03,08,18,36,12.10
2015,03,08,18,37,12.10
2015,03,08,18,38,12.20
2015,03,08,18,39,12.20
2015,03,08,18,40,12.20
2015,03,08,18,41,12.20
2015,03,08,18,42,12.20
2015,03,08,18,43,12.20
2015,03,08,18,44,12.20
2015,03,08,18,45,12.20
2015,03,08,18,46,12.30
2015,03,08,18,47,12.30
2015,03,08,18,48,12.30
2015,03,08,18,49,12.20
2015,03,08,18,50,12.20